Esbjerg, Denmark

03:21 AM CEST am 23. Mai 2017 (GMT +0200)
Esbjerg

Wetter Verlauf für EKEB - März, 2017

Change the Weather History Date:

Montag, März 20, 2017

  Actual Average Record
Temperature  
mittlereTemperatur 42 °F -  
Max. Temperatur 46 °F 47 °F 55 °F (2014)
Min.Temperatur 39 °F 34 °F 17 °F (2001)
Degree Days  
Heizgradtage 22    
Moisture  
Taupunkt 43 °F    
Average Humidity 97    
Maximum Humidity 100    
Minimum Humidity 93    
Niederschlag  
Niederschlag 0.00 inch - - ()
Luftdruck in Meereshöhe  
Luftdruck in Meereshöhe 29.47 inch    
Wind  
Windgeschwindigkeit 11 mph ()    
Max. Windgeschwindigkeit 21 mph    
Max Gust Speed 31 mph    
Sichtweite 4.5 Meilen    
Ereignisse Nebel , Regen    
Averages and records for this station are not official NWS values.
T = Trace of Precipitation, MM = Missing Value Source: Averaged Metar Reports

Daily Weather History Graph

Daily Weather History Graph

Search for Another Location

Airport or City:

Trip Planner

Search our weather history database for the weather conditions in past years. The results will help you decide how hot, cold, wet, or windy it might be!

Date:

Astronomie

Mar. 20, 2017 Aufgang Untergang
Genaue Zeit 06:27 CET 18:39 CET
Bürgerliche Dämmerung 05:51 CET 19:16 CET
Nautische Dämmerung 05:07 CET 20:00 CET
Astronomische Dämmerung 04:21 CET 20:46 CET
Mond 01:59 CET (3/20) 10:21 CET (3/20)
Länge des sichtbaren Lichts 13h 25m
Tageslänge
12h 11m
Drittes Viertel, 52% of the Moon is Illuminated
Mrz 20
Drittes Viertel
Mrz 20
Letztes Viertel
Mrz 28
Neu
Apr 3
Erstes Viertel
Apr 11
Vollmond

Hourly Weather History & Observations

Zeit (CET) Temp. Windchill Taupunkt Feuchtigkeit Druck Sichtweite Wind Dir Windgeschwindigkeit Böengeschwindigkeit Precip Ereignisse Wetterzustand
12:20 AM 42.8 °F 35.8 °F 41.0 °F 93% 29.50 inch 6.2 mi West-Nordwest 13.8 mph - N/A   Bedeckt
12:50 AM 42.8 °F 36.6 °F 41.0 °F 93% 29.53 inch 6.2 mi West 11.5 mph - N/A   Bedeckt
1:20 AM 42.8 °F 36.6 °F 41.0 °F 93% 29.53 inch 6.2 mi West 11.5 mph - N/A   Bedeckt
1:50 AM 42.8 °F 37.5 °F 41.0 °F 93% 29.53 inch 6.2 mi West 9.2 mph - N/A   Bedeckt
2:20 AM 42.8 °F 37.5 °F 41.0 °F 93% 29.53 inch 6.2 mi West 9.2 mph - N/A   Bedeckt
2:50 AM 42.8 °F 35.8 °F 41.0 °F 93% 29.56 inch 6.2 mi West 13.8 mph - N/A   Bedeckt
3:20 AM 42.8 °F 36.2 °F 41.0 °F 93% 29.56 inch 6.2 mi West 12.7 mph - N/A   Bedeckt
3:50 AM 41.0 °F 35.2 °F 41.0 °F 100% 29.53 inch 6.2 mi West 9.2 mph - N/A   Bedeckt
4:20 AM 41.0 °F 35.8 °F 41.0 °F 100% 29.53 inch 6.2 mi West 8.1 mph - N/A   Bedeckt
4:50 AM 41.0 °F 35.8 °F 39.2 °F 93% 29.56 inch 0.3 mi West 8.1 mph - N/A Nebel Nebel
5:20 AM 39.2 °F 33.6 °F 39.2 °F 100% 29.56 inch 0.4 mi West 8.1 mph - N/A Nebel Nebel
5:50 AM 39.2 °F 34.2 °F 39.2 °F 100% 29.56 inch 0.2 mi Südwest 6.9 mph - N/A Nebel Nebel
6:20 AM 39.2 °F 34.2 °F 39.2 °F 100% 29.56 inch 1.1 mi West-Südwest 6.9 mph - N/A   Bedeckt
6:50 AM 39.2 °F 35.9 °F 39.2 °F 100% 29.56 inch 0.3 mi West-Südwest 4.6 mph - N/A Nebel Nebel
7:20 AM 39.2 °F 34.2 °F 39.2 °F 100% 29.56 inch - Süd-Südwest 6.9 mph - N/A Nebel Nebel
7:50 AM 41.0 °F 38.0 °F 41.0 °F 100% 29.56 inch 0.5 mi Süd 4.6 mph - N/A Nebel Nebel
8:20 AM 42.8 °F 37.5 °F 41.0 °F 93% 29.56 inch 0.3 mi Süd 9.2 mph - N/A Nebel Nebel
8:50 AM 42.8 °F 37.0 °F 42.8 °F 100% 29.56 inch 0.7 mi Süd 10.4 mph - N/A   Bedeckt
9:20 AM 42.8 °F 37.5 °F 42.8 °F 100% 29.56 inch 1.2 mi Süd 9.2 mph - N/A   Bedeckt
9:50 AM 42.8 °F 37.5 °F 42.8 °F 100% 29.53 inch 4.3 mi Süd 9.2 mph - N/A   Bedeckt
10:20 AM 44.6 °F 39.2 °F 44.6 °F 100% 29.53 inch 6.2 mi Süd 10.4 mph - N/A   Bedeckt
10:50 AM 44.6 °F 39.2 °F 44.6 °F 100% 29.53 inch 6.2 mi Süd 10.4 mph - N/A   Wolkig
11:20 AM 46.4 °F 41.5 °F 44.6 °F 93% 29.53 inch 6.2 mi Süd 10.4 mph - N/A   Wolkig
11:50 AM 44.6 °F 38.8 °F 44.6 °F 100% 29.53 inch 5.0 mi Süd 11.5 mph - N/A Regen Leichte Regenschauer
12:20 PM 44.6 °F 38.8 °F 44.6 °F 100% 29.53 inch 3.1 mi Süd-Südwest 11.5 mph - N/A Regen Leichte Regenschauer
12:50 PM 46.4 °F 41.1 °F 44.6 °F 93% 29.50 inch - Süd-Südwest 11.5 mph - N/A   Wolkig
1:20 PM 46.4 °F 41.5 °F 44.6 °F 93% 29.50 inch 6.2 mi Südwest 10.4 mph - N/A   Wolkig
1:50 PM 46.4 °F 41.1 °F 44.6 °F 93% 29.47 inch 6.2 mi Süd-Südwest 11.5 mph - N/A   Wolkig
2:20 PM 46.4 °F 41.1 °F 44.6 °F 93% 29.47 inch 6.2 mi Süd 11.5 mph - N/A   Bedeckt
2:50 PM 44.6 °F 39.2 °F 44.6 °F 100% 29.44 inch - Süd 10.4 mph - N/A Regen Leichter Regen
3:20 PM 44.6 °F 39.2 °F 44.6 °F 100% 29.44 inch 3.7 mi Süd-Südwest 10.4 mph - N/A Regen Leichter Regen
3:50 PM 44.6 °F 37.8 °F 44.6 °F 100% 29.42 inch 1.7 mi Süd-Südwest 15.0 mph - N/A Regen Leichter Regen
4:20 PM 46.4 °F 39.5 °F 44.6 °F 93% 29.42 inch 3.7 mi Süd-Südwest 17.3 mph - N/A   Nieselregen
4:50 PM 44.6 °F 37.8 °F 44.6 °F 100% 29.39 inch 6.2 mi Süd-Südwest 15.0 mph - N/A Regen Leichter Regen
5:20 PM 44.6 °F 37.2 °F 44.6 °F 100% 29.39 inch 4.3 mi Süd-Südwest 17.3 mph - N/A Regen Leichter Regen
5:50 PM 44.6 °F 37.2 °F 44.6 °F 100% 29.36 inch 4.3 mi Süd-Südwest 17.3 mph - N/A Regen Leichter Regen
6:20 PM 44.6 °F 37.2 °F 44.6 °F 100% 29.36 inch 5.6 mi Südwest 17.3 mph - N/A Regen Leichter Regen
6:50 PM 44.6 °F 37.2 °F 44.6 °F 100% 29.33 inch 3.1 mi Südwest 17.3 mph - N/A Regen Leichter Regen
7:20 PM 44.6 °F 37.2 °F 44.6 °F 100% 29.33 inch 6.2 mi Südwest 17.3 mph - N/A Regen Leichter Regen
7:50 PM 44.6 °F 37.4 °F 44.6 °F 100% 29.33 inch 4.3 mi West-Südwest 16.1 mph - N/A Regen Leichter Regen
8:20 PM 44.6 °F 38.4 °F 42.8 °F 93% 29.33 inch 6.2 mi West 12.7 mph - N/A Regen Leichter Regen
8:50 PM 44.6 °F 38.8 °F 42.8 °F 93% 29.33 inch 6.2 mi West 11.5 mph - N/A   Leichtes Nieseln
9:20 PM 42.8 °F 35.4 °F 42.8 °F 100% 29.36 inch 6.2 mi West 15.0 mph - N/A   Wolkig
9:50 PM 42.8 °F 35.8 °F 42.8 °F 100% 29.36 inch 6.2 mi West 13.8 mph - N/A   Wolkig
10:20 PM 44.6 °F 36.6 °F 42.8 °F 93% 29.39 inch 5.6 mi West 19.6 mph 31.1 mph N/A   Bedeckt
10:50 PM 44.6 °F 36.4 °F 42.8 °F 93% 29.39 inch 6.2 mi West 20.7 mph - N/A   Bedeckt
11:20 PM 42.8 °F 34.8 °F 42.8 °F 100% 29.42 inch 6.2 mi West 17.3 mph - N/A   Wolkig
11:50 PM 42.8 °F 35.4 °F 41.0 °F 93% 29.42 inch 6.2 mi West 15.0 mph - N/A   Wolkig